Regional Weather Roundup
Issued by NWS

Home | Current Version | Previous Version | Text Only | Print | Product List | Glossary Off
Versions: 1 2 3 4 5 6 7 8 9 10 11 12 13 14 15 16 17 18 19 20 21 22 23 24 25 26 27 28 29 30 31 32 33 34 35 36 37 38 39 40 41 42 43 44 45 46 47 48 49 50

000
ASUS43 KFSD 200110
RWRSD

WEATHER ROUNDUP FOR SOUTH DAKOTA
NATIONAL WEATHER SERVICE SIOUX FALLS SD
800 PM CDT SAT APR 19 2014

NOTE: "FAIR" INDICATES FEW OR NO CLOUDS BELOW 12,000 FEET WITH NO
SIGNIFICANT WEATHER AND/OR OBSTRUCTIONS TO VISIBILITY.


SDZ001>005-009-010-012>017-200200-
NORTHWEST AND NORTH CENTRAL SOUTH DAKOTA

CITY           SKY/WX    TMP DP  RH WIND       PRES   REMARKS
BUFFALO          N/A     62  18  18 CALM      29.90F
FAITH            N/A     62  28  27 SW5       29.97F
MOBRIDGE       CLEAR     63  26  24 W7        29.94R
$$

SDZ012>016-024>037-041>051-057-063-072>074-200200-
SOUTHWEST AND SOUTH CENTRAL SOUTH DAKOTA

CITY           SKY/WX    TMP DP  RH WIND       PRES   REMARKS
RAPID CTY ARPT MOCLDY    60  33  36 SE12      29.98S
PIERRE         MOCLDY    64  23  21 S5        29.97F
CUSTER         PTCLDY    51  30  44 S6        30.03R
ELLSWORTH AFB  MOCLDY    61  34  36 S15       29.98R
PHILIP         MOCLDY    60  27  28 S8        29.99S
PINE RIDGE     MOCLDY    58  33  39 SE12      29.98F
SPEARFISH      FAIR      55  32  41 E7        29.99F
WINNER         FAIR      66  21  18 CALM      30.01S
$$

SDZ004>011-016>023-039-040-200200-
NORTHEAST SOUTH DAKOTA

CITY           SKY/WX    TMP DP  RH WIND       PRES   REMARKS
ABERDEEN       PTCLDY    62  27  26 W8        29.96R
WATERTOWN      MOCLDY    59  28  30 W7        29.99R
SISSETON         N/A     63  33  32 NW3       29.95R
$$

SDZ017-020-022-023-036>040-048>070-200200-
SOUTHEAST SOUTH DAKOTA

CITY           SKY/WX    TMP DP  RH WIND       PRES   REMARKS
SIOUX FALLS    CLOUDY    62  37  39 N6        29.98S
HURON          MOCLDY    62  25  24 SW5       29.98S
CHAMBERLAIN      N/A     63  24  22 E5        30.01S
MITCHELL       PTCLDY    66  24  20 S6        30.00S
YANKTON        MOCLDY    66  43  42 NW5       29.99R
$$

ABBREVIATIONS USED IN REMARKS
   TC - TEMPERATURE IN CELSIUS
  WCI - WIND CHILL INDEX
   HX - HEAT INDEX
  VSB - VISIBILITY




USA.gov is the U.S. government's official web portal to all federal, state and local government web resources and services.